Regional Weather Roundup
Issued by NWS Jackson, KY

Home | Current Version | Previous Version | Graphics & Text | Print | Product List | Glossary On
Versions: 1 2 3 4 5 6 7 8 9 10 11 12 13 14 15 16 17 18 19 20 21 22 23 24 25 26 27 28 29 30 31 32 33 34 35 36 37 38 39 40 41 42 43 44 45 46 47 48 49 50
000
ASUS43 KJKL 031010
RWRJKL

EAST KENTUCKY HOURLY WEATHER ROUNDUP
NATIONAL WEATHER SERVICE JACKSON KY
600 AM EDT THU SEP 03 2015

NOTE: "FAIR" INDICATES FEW OR NO CLOUDS BELOW 12,000 FEET WITH
NO SIGNIFICANT WEATHER AND/OR OBSTRUCTIONS TO VISIBILITY.

* THESE REPORTS ARE NOT UNDER NWS QUALITY CONTROL AND MAY NOT
  REPORT WEATHER SUCH AS PRECIPITATION AND FOG.

KYZ079-080-083-085-087-088-110-112-115-119-120-031100
...EASTERN KENTUCKY...

CITY           SKY/WX    TMP DP  RH WIND       PRES   REMARKS
JACKSON        CLEAR     67  65  93 CALM      30.05S FOG
LONDON         PTCLDY    65  61  87 CALM      30.05S FOG
SOMERSET*      PTCLDY    63  63 100 CALM      30.05S FOG
MONTICELLO*    CLEAR     63  63 100 CALM      30.07S FOG
WILLIAMSBURG*  CLEAR     63  63 100 CALM      30.06R VSB 1
MIDDLESBORO*   MOCLDY    64  64 100 CALM      30.07S FOG
HARLAN APT*      N/A     64  64 100 MISG      30.08R VSB 1/2
HAZARD APT*    SUNNY     64  64 100 CALM      30.06R FOG
BLACK MTN*       N/A     64  59  82 N5          N/A
PIKEVILLE APT* PTCLDY    66  66 100 S3        30.06S FOG
BIG SANDY*     MOSUNNY   67  67  99 CALM      30.05R
MOREHEAD APT*  FOG       66  66 100 CALM      30.06R VSB<1/4
$$

KYZ035-036-041-042-044-050-067-078-099-031100
...CENTRAL KENTUCKY...

CITY           SKY/WX    TMP DP  RH WIND       PRES   REMARKS
MT STERLING*   CLEAR     64  64 100 SW5       30.05S FOG
FLEMING/MASON* FOG       66  66 100 CALM      30.04S VSB 1/2
DANVILLE*      CLEAR     64  63  94 CALM      30.05S FOG
RICHMOND*      CLEAR     66  64  94 CALM      30.04S
LEXINGTON      CLEAR     68  65  90 CALM      30.03S FOG
FRANKFORT      CLEAR     66  64  93 CALM      30.02S FOG
$$

KYZ091>093-OHZ055-061-077-WVZ005-015-034-035-042-031100
...SOUTHERN OHIO/WEST VIRGINIA...

CITY           SKY/WX    TMP DP  RH WIND       PRES   REMARKS
COVINGTON      PTCLDY    68  66  93 SW3       30.03R FOG
COLUMBUS       MOCLDY    70  67  90 CALM      30.00R
DAYTON         PTCLDY    68  67  96 W3        30.03S
WILMINGTON     CLEAR     65  63  93 SW5       30.03R FOG
HUNTINGTON     FOG       66  66 100 SW3       30.02R VSB 1/4
CHARLESTON     PTCLDY    66  65  96 CALM      30.02S FOG
PINEVILLE*     FOG       63  63 100 MISG      30.12S VSB 1/2
BECKLEY        CLEAR     63  61  93 S3        30.09S FOG
BLUEFIELD      PTCLDY    65  60  84 W7        30.12R
$$

VAZ002-007-008-TNZ017-027-036-066-071-031100
...SOUTHWEST VIRGINIA/EAST TENNESSEE...

CITY           SKY/WX    TMP DP  RH WIND       PRES   REMARKS
WISE*          PTCLDY    64  64 100 CALM      30.13R
JONESVILLE*    MOSUNNY   63  63 100 CALM      30.09R FOG
ABINGDON*      MOCLDY    66  63  87 CALM      30.09S
BRISTOL        MOCLDY    65  63  93 CALM      30.06R FOG
KNOXVILLE      CLOUDY    72  69  90 CALM      30.02R
OAK RIDGE      MOCLDY    71  68  90 CALM      30.04S
CROSSVILLE     PTCLDY    68  65  90 CALM      30.08S
NASHVILLE      PTCLDY    75  69  81 CALM      30.01S
$$

...KEY TO REMARKS...
VSB - VISIBILITY IN MILES
WCI - WIND CHILL INDEX
HX  - HEAT INDEX

$$



USA.gov is the U.S. government's official web portal to all federal, state and local government web resources and services.